STARLINK-34519

Last updated on Sat Jul 19 2025 00:02:07 GMT+0000 (Coordinated Universal Time)

1 64608U 25137Q 25199.58335648 -.01536863 00000+0 -16380-1 0 9992 2 64608 53.1594 355.2637 0001007 101.6519 288.3551 15.66252636 4755
UTC large
Height (km)
Speed (km/s)
/
Latitude / Longitude
Inclination (degrees)
Orbital Period (minutes)
Azimuth
Elevation
Range (km)
Doppler Factor

Next 0 passes for location: London (51.5072 / 0.1276)

Sorry there are no passes over London.